{"data":{"norad_id":56226,"intl_designator":"2023-084BK","name":"OUTPOST MISSION 1","alt_names":[],"object_type":"PAYLOAD","status":"ACTIVE","operator":null,"country":"US","launch_date":"2023-06-12","launch_site_code":"AFWTR","launch_vehicle":null,"mission":null,"orbit_class":"UNKNOWN","rcs_meters":null,"size_class":null,"mass_kg":null,"dimensions":null,"purposes":[],"wikipedia_slug":null,"has_3d_model":false,"image_url":null,"decayed_at":null,"tle_current":{"epoch":"2026-06-28T15:35:06.699840Z","epoch_age_seconds":7432208,"freshness":"OLD","line1":"1 56226U 23084BK  26179.64938310  .05786670  26576-5  50011-3 0  9997","line2":"2 56226  97.5806 345.3696 0013255 264.1250  95.8538 16.39147782170879","mean_motion":16.39147782,"eccentricity":0.0013255,"inclination_deg":97.5806,"raan_deg":345.3696,"arg_perigee_deg":264.125,"mean_anomaly_deg":95.8538,"bstar":0.00050011,"rev_number":17087,"period_min":87.850529147713,"perigee_km":159.39350783208,"apogee_km":176.74750393017,"semimajor_km":6546.2075058811,"source":"CELESTRAK","updated_at":"2026-06-29T09:00:35.389590Z"}}}